Tracking 19475 objects as of 18-Jan-2019
HD Live streaming from Space Station
objects crossing your sky now

COSMOS 1852

Track COSMOS 1852 now!
10-day predictions
COSMOS 1852 is classified as:


NORAD ID: 18113
Int'l Code: 1987-051A
Perigee: 1,480.0 km
Apogee: 1,506.5 km
Inclination: 74.0 °
Period: 115.7 minutes
Semi major axis: 7864 km
RCS: 0.6932 m2 (medium)
Launch date: June 16, 1987
Source: Commonwealth of Independent States (former USSR) (CIS)
Launch site: PLESETSK MISSILE AND SPACE COMPLEX (PKMTR)
aabbcc
Your satellite tracking list
Your tracking list is empty




NASA's NSSDC Master Catalog

Two Line Element Set (TLE):
1 18113U 87051A   19017.68314840 -.00000021  00000-0 -38602-4 0  9995
2 18113  74.0044  93.1099 0016829   5.7120 110.2546 12.44844151435732
Source of the keplerian elements: AFSPC